DW1415 Weather Reports


time (UTC)temp
C
wind
direction
speed
KPH
gust
KPH
rain 1hr
cm
rain 24hr
cm
rain mn
cm
humidity
%
barometer
mb
20260505153003 24 331 4.8 9.7 0.00 0.00 0.00 48 1007.5
20260505152504 24 14 3.2 9.7 0.00 0.00 0.00 49 1007.6
20260505151004 23 11 4.8 11.3 0.00 0.00 0.00 50 1007.8
20260505140503 21 12 6.4 19.3 0.00 0.00 0.00 55 1008.3
20260505125003 20 11 6.4 12.9 0.00 0.00 0.00 59 1008.1
20260505124002 19 20 4.8 8.0 0.00 0.00 0.00 61 1007.9
20260505123503 18 34 1.6 4.8 0.00 0.00 0.00 62 1007.9
20260505123004 18 9 4.8 9.7 0.00 0.00 0.00 62 1007.9
20260505122003 18 13 4.8 11.3 0.00 0.00 0.00 64 1008.0
20260505121503 18 6 6.4 12.9 0.00 0.00 0.00 65 1008.0
20260505120502 17 18 3.2 4.8 0.00 0.00 0.00 67 1008.1
20260505115503 17 7 4.8 9.7 0.00 0.00 0.00 68 1008.1
20260505113503 16 17 3.2 4.8 0.00 0.00 0.00 72 1008.2
20260505112503 15 26 1.6 3.2 0.00 0.00 0.00 73 1008.1
20260505112003 15 19 1.6 3.2 0.00 0.00 0.00 72 1008.3
20260505111004 15 17 0.0 1.6 0.00 0.00 0.00 72 1008.3
20260505100502 13 40 1.6 4.8 0.00 0.00 0.00 75 1007.9
20260505092003 14 5 0.0 3.2 0.00 0.00 0.00 74 1007.3
20260505084003 14 10 1.6 4.8 0.00 0.00 0.00 73 1007.3
20260505083503 14 11 1.6 4.8 0.00 0.00 0.00 73 1007.4
20260505075003 15 5 0.0 1.6 0.00 0.00 0.00 70 1007.4
20260505073004 15 5 0.0 1.6 0.00 0.00 0.00 69 1007.3
20260505072503 15 5 0.0 3.2 0.00 0.00 0.00 69 1007.3
20260505071003 15 5 1.6 3.2 0.00 0.00 0.00 69 1007.4
20260505070004 15 12 1.6 3.2 0.00 0.00 0.00 68 1007.3
20260505065503 15 12 0.0 3.2 0.00 0.00 0.00 68 1007.3
20260505064002 15 12 0.0 1.6 0.00 0.00 0.00 67 1007.3
20260505063004 15 12 0.0 3.2 0.00 0.00 0.00 67 1007.3
20260505062004 15 5 0.0 1.6 0.00 0.00 0.00 67 1007.4
20260505061003 15 5 0.0 3.2 0.00 0.00 0.00 66 1007.5
20260505055503 16 5 0.0 1.6 0.00 0.00 0.00 66 1007.5
20260505053004 16 17 1.6 4.8 0.00 0.00 0.00 64 1007.6
20260505051503 16 18 1.6 4.8 0.00 0.00 0.00 63 1007.7
20260505051003 16 5 0.0 4.8 0.00 0.00 0.00 63 1007.8
20260505050503 16 10 1.6 4.8 0.00 0.00 0.00 62 1007.8
20260505041503 16 12 3.2 4.8 0.00 0.00 0.00 60 1007.9
20260505040503 16 13 1.6 4.8 0.00 0.00 0.00 59 1008.0
20260505035003 17 12 1.6 4.8 0.00 0.00 0.00 58 1008.1
20260505034503 17 13 1.6 8.0 0.00 0.00 0.00 58 1008.1
20260505034003 17 15 3.2 8.0 0.00 0.00 0.00 58 1008.0
20260505033003 17 15 3.2 8.0 0.00 0.00 0.00 56 1008.1
20260505032503 17 24 4.8 12.9 0.00 0.00 0.00 56 1008.1
20260505032004 17 9 3.2 8.0 0.00 0.00 0.00 55 1008.1
20260505031503 17 23 4.8 8.0 0.00 0.00 0.00 55 1008.1
20260505031003 17 11 4.8 9.7 0.00 0.00 0.00 54 1008.1
20260505030003 17 27 3.2 9.7 0.00 0.00 0.00 54 1008.2
20260505025503 17 12 3.2 4.8 0.00 0.00 0.00 53 1008.2
20260505024003 18 24 3.2 8.0 0.00 0.00 0.00 52 1008.2
20260505023503 18 11 3.2 9.7 0.00 0.00 0.00 52 1008.3
20260505022504 18 27 4.8 12.9 0.00 0.00 0.00 52 1008.3
20260505022003 18 4 3.2 9.7 0.00 0.00 0.00 52 1008.3
20260505021003 18 11 4.8 9.7 0.00 0.00 0.00 51 1008.4
20260505020504 18 16 3.2 8.0 0.00 0.00 0.00 51 1008.3
20260505020005 18 7 3.2 4.8 0.00 0.00 0.00 50 1008.3
20260505015503 18 8 3.2 4.8 0.00 0.00 0.00 50 1008.2
20260505015003 18 25 3.2 11.3 0.00 0.00 0.00 51 1008.2
20260505014504 18 8 3.2 4.8 0.00 0.00 0.00 50 1008.2
20260505013003 19 12 4.8 9.7 0.00 0.00 0.00 48 1008.2
20260505012005 20 23 4.8 11.3 0.00 0.00 0.00 44 1008.0
20260505010503 20 5 4.8 9.7 0.00 0.00 0.00 39 1007.7
20260505005004 21 11 3.2 8.0 0.00 0.00 0.00 38 1007.4
20260505004504 21 20 3.2 11.3 0.00 0.00 0.00 38 1007.4
20260505003503 21 7 4.8 8.0 0.00 0.00 0.00 38 1007.3
20260505002503 21 18 4.8 9.7 0.00 0.00 0.00 38 1007.2
20260505002003 21 19 6.4 9.7 0.00 0.00 0.00 37 1007.1
20260505001004 21 16 3.2 12.9 0.00 0.00 0.00 37 1007.0
20260505000003 21 5 4.8 12.9 0.00 0.00 0.00 37 1006.8
20260504235503 21 8 4.8 12.9 0.00 0.00 0.00 37 1006.7
20260504235004 21 14 8.0 14.5 0.00 0.00 0.00 36 1006.7
20260504231003 22 12 8.0 16.1 0.00 0.00 0.00 35 1006.1
20260504225005 22 22 3.2 14.5 0.00 0.00 0.00 35 1006.0
20260504224003 22 16 6.4 12.9 0.00 0.00 0.00 34 1006.2
20260504222004 22 14 8.0 14.5 0.00 0.00 0.00 34 1006.2
20260504221005 22 18 8.0 14.5 0.00 0.00 0.00 34 1006.2
20260504220504 22 359 6.4 19.3 0.00 0.00 0.00 34 1006.3
20260504220004 22 321 4.8 12.9 0.00 0.00 0.00 34 1006.3
20260504215503 22 7 3.2 9.7 0.00 0.00 0.00 34 1006.5
20260504215004 22 4 4.8 14.5 0.00 0.00 0.00 34 1006.5
20260504214504 23 359 8.0 12.9 0.00 0.00 0.00 33 1006.6
20260504214004 22 14 6.4 12.9 0.00 0.00 0.00 34 1006.6
20260504212503 23 5 6.4 16.1 0.00 0.00 0.00 34 1006.6
20260504212004 23 9 4.8 14.5 0.00 0.00 0.00 33 1006.7
20260504211003 22 44 4.8 12.9 0.00 0.00 0.00 33 1006.8
20260504205003 23 1 6.4 14.5 0.00 0.00 0.00 33 1006.6
20260504204504 23 0 6.4 19.3 0.00 0.00 0.00 32 1006.7
20260504202504 23 17 6.4 12.9 0.00 0.00 0.00 33 1006.8
20260504202005 23 349 8.0 19.3 0.00 0.00 0.00 32 1006.7
20260504201505 23 359 4.8 12.9 0.00 0.00 0.00 32 1006.8
20260504195504 23 338 4.8 12.9 0.00 0.00 0.00 32 1007.1
20260504193004 22 12 4.8 12.9 0.00 0.00 0.00 33 1007.1
20260504190504 22 2 8.0 14.5 0.00 0.00 0.00 34 1007.5
20260504185004 22 14 4.8 16.1 0.00 0.00 0.00 34 1007.8
20260504184504 22 348 8.0 19.3 0.00 0.00 0.00 34 1007.9
20260504184005 22 10 8.0 16.1 0.00 0.00 0.00 34 1008.0
20260504183504 21 28 9.7 16.1 0.00 0.00 0.00 34 1007.9
20260504181005 21 357 4.8 19.3 0.00 0.00 0.00 35 1008.2
20260504180004 21 37 4.8 11.3 0.00 0.00 0.00 36 1008.4
20260504171504 21 25 4.8 12.9 0.00 0.00 0.00 37 1009.0
20260504171005 20 13 4.8 12.9 0.00 0.00 0.00 37 1009.0
20260504170503 20 356 8.0 16.1 0.00 0.00 0.00 37 1009.2